KA1WBH Weather Reports


Display with metric or nautical units.
time (UTC)temp
F
wind
direction
speed
MPH
gust
MPH
rain 1hr
in
rain 24hr
in
rain mn
in
humidity
%
barometer
mb
20210622050917 68 186 0.0 1.0 0.00 0.00 0.00 99 1003.7
20210622045917 68 187 0.0 1.0 0.00 0.00 0.00 99 1003.7
20210622044847 68 187 0.0 4.0 0.00 0.00 0.00 99 1003.8
20210622043847 68 202 0.0 3.0 0.00 0.00 0.00 99 1004.2
20210622042917 68 211 0.0 3.0 0.00 0.00 0.00 99 1004.2
20210622041917 68 216 0.0 9.0 0.00 0.00 0.00 99 1004.4
20210622040917 68 245 9.0 9.0 0.00 0.00 0.00 99 1004.6
20210622035917 68 254 2.0 6.0 0.00 0.00 0.00 99 1004.5
20210622034846 68 237 0.0 11.0 0.00 0.00 0.00 99 1004.2
20210622033847 68 236 0.0 7.0 0.00 0.00 0.00 99 1004.2
20210622032917 68 234 0.0 11.0 0.00 0.00 0.00 99 1004.3
20210622031846 68 43 9.0 9.0 0.00 0.00 0.00 98 1004.7
20210622030916 69 204 0.0 9.0 0.00 0.00 0.00 99 1004.9
20210622025918 69 204 1.0 7.0 0.00 0.00 0.00 99 1004.8
20210622024917 69 234 0.0 10.0 0.00 0.00 0.00 98 1004.9
20210622023846 69 212 1.0 12.0 0.00 0.00 0.00 98 1004.8
20210622022847 69 233 0.0 10.0 0.00 0.00 0.00 98 1004.9
20210622021917 69 225 3.0 11.0 0.00 0.00 0.00 98 1004.9
20210622020917 69 226 2.0 7.0 0.00 0.00 0.00 98 1004.7
20210622015916 69 204 2.0 10.0 0.00 0.00 0.00 98 1004.9
20210622014917 69 191 0.0 9.0 0.00 0.00 0.00 98 1004.9
20210622013916 69 191 0.0 7.0 0.00 0.00 0.00 98 1004.6
20210622012917 69 188 4.0 7.0 0.00 0.00 0.00 98 1004.4
20210622011916 69 198 2.0 7.0 0.00 0.00 0.00 98 1004.4
20210622010916 69 204 0.0 9.0 0.00 0.00 0.00 97 1004.4
20210622005916 69 200 0.0 11.0 0.00 0.00 0.00 97 1004.4
20210622004846 69 241 0.0 11.0 0.00 0.00 0.00 97 1004.5
20210622003917 69 227 4.0 10.0 0.00 0.00 0.00 97 1004.5
20210622002917 70 225 10.0 11.0 0.00 0.00 0.00 97 1004.6
20210622001847 70 225 5.0 11.0 0.00 0.00 0.00 97 1004.5
20210622000916 70 222 2.0 15.0 0.00 0.00 0.00 97 1004.5
20210621235917 70 218 0.0 19.0 0.00 0.00 0.00 97 1004.3
20210621234846 70 235 16.0 16.0 0.00 0.00 0.00 97 1004.3
20210621233916 71 249 3.0 17.0 0.00 0.00 0.00 97 1004.1
20210621232916 71 201 6.0 16.0 0.00 0.00 0.00 96 1004.0
20210621231846 71 210 7.0 14.0 0.00 0.00 0.00 97 1004.1
20210621230916 71 212 3.0 13.0 0.00 0.00 0.00 97 1004.1
20210621225916 71 210 4.0 13.0 0.00 0.00 0.00 97 1004.0
20210621224917 71 215 6.0 12.0 0.00 0.00 0.00 97 1004.3
20210621223847 70 208 6.0 11.0 0.00 0.00 0.00 97 1004.7
20210621222916 70 220 3.0 12.0 0.00 0.00 0.00 97 1004.8
20210621221916 70 228 6.0 14.0 0.00 0.00 0.00 97 1004.9
20210621220916 70 202 5.0 18.0 0.00 0.00 0.00 97 1005.0
20210621215917 70 196 2.0 15.0 0.00 0.00 0.00 97 1004.9
20210621214916 70 210 0.0 13.0 0.00 0.00 0.00 97 1005.0
20210621213916 70 209 4.0 11.0 0.00 0.00 0.00 97 1005.0
20210621212846 70 220 5.0 14.0 0.00 0.00 0.00 97 1005.3
20210621211846 70 209 0.0 13.0 0.00 0.00 0.00 97 1005.3
20210621210916 71 214 4.0 15.0 0.00 0.00 0.00 97 1005.4
20210621205916 71 228 4.0 16.0 0.00 0.00 0.00 96 1005.6
20210621204846 71 245 5.0 15.0 0.00 0.00 0.00 96 1005.6
20210621203846 71 227 4.0 13.0 0.00 0.00 0.00 96 1005.6
20210621202916 71 199 4.0 14.0 0.00 0.00 0.00 96 1005.4
20210621201846 71 260 4.0 13.0 0.00 0.00 0.00 97 1005.4
20210621200846 70 201 1.0 12.0 0.00 0.00 0.00 97 1005.7
20210621195916 70 207 4.0 18.0 0.00 0.00 0.00 97 1005.9
20210621194916 70 229 1.0 16.0 0.00 0.00 0.00 97 1006.2
20210621193916 70 215 3.0 12.0 0.00 0.00 0.00 96 1006.4
20210621192846 70 208 6.0 13.0 0.00 0.00 0.00 96 1006.3
20210621191916 71 216 0.0 13.0 0.00 0.00 0.00 96 1006.4
20210621190916 71 219 0.0 11.0 0.00 0.00 0.00 96 1006.3
20210621185916 71 240 10.0 13.0 0.00 0.00 0.00 96 1006.1
20210621184846 71 165 0.0 14.0 0.00 0.00 0.00 96 1005.9
20210621183916 71 202 3.0 11.0 0.00 0.00 0.00 97 1006.1
20210621182916 71 227 1.0 11.0 0.00 0.00 0.00 97 1006.4
20210621181846 70 198 6.0 17.0 0.00 0.00 0.00 97 1006.6
20210621180916 70 205 3.0 12.0 0.00 0.00 0.00 97 1006.8
20210621175916 70 245 2.0 11.0 0.00 0.00 0.00 97 1007.2
20210621174916 70 221 0.0 12.0 0.00 0.00 0.00 97 1007.3
20210621173846 70 43 3.0 12.0 0.00 0.00 0.00 96 1007.3
20210621172916 70 250 4.0 11.0 0.00 0.00 0.00 97 1007.3
20210621171916 70 196 0.0 10.0 0.00 0.00 0.00 97 1007.4
20210621170846 70 235 0.0 9.0 0.00 0.00 0.00 97 1007.5
20210621165916 70 220 2.0 11.0 0.00 0.00 0.00 97 1007.8
20210621164916 70 226 4.0 11.0 0.00 0.00 0.00 97 1008.0
20210621163916 70 230 0.0 11.0 0.00 0.00 0.00 97 1008.0
20210621162916 70 219 0.0 12.0 0.00 0.00 0.00 97 1008.1
20210621161916 70 208 0.0 11.0 0.00 0.00 0.00 97 1008.1
20210621160916 70 221 0.0 14.0 0.00 0.00 0.00 97 1008.1
20210621155916 71 200 4.0 11.0 0.00 0.00 0.00 98 1008.2
20210621154916 71 230 3.0 12.0 0.00 0.00 0.00 98 1008.3
20210621153846 71 187 4.0 10.0 0.00 0.00 0.00 99 1008.4
20210621152846 70 216 3.0 11.0 0.00 0.00 0.00 99 1008.4
20210621151916 70 197 3.0 10.0 0.00 0.00 0.00 99 1008.4
20210621150846 70 168 0.0 13.0 0.00 0.00 0.00 99 1008.4
20210621145916 70 205 2.0 12.0 0.00 0.00 0.00 99 1008.5
20210621144916 70 198 2.0 7.0 0.00 0.00 0.00 99 1008.3
20210621143916 70 224 0.0 10.0 0.00 0.00 0.00 99 1008.5
20210621142916 70 195 0.0 11.0 0.00 0.00 0.00 99 1008.6
20210621141916 70 214 0.0 6.0 0.00 0.00 0.00 99 1008.6
20210621140846 70 209 2.0 10.0 0.00 0.00 0.00 99 1008.6
20210621135916 69 210 2.0 10.0 0.00 0.00 0.00 99 1008.7
20210621134916 69 201 4.0 7.0 0.00 0.00 0.00 99 1008.7
20210621133916 69 204 2.0 9.0 0.00 0.00 0.00 99 1008.9
20210621132917 69 216 0.0 7.0 0.00 0.00 0.00 99 1008.8
20210621131916 68 168 2.0 7.0 0.00 0.00 0.00 99 1008.9
20210621130916 69 168 0.0 7.0 0.00 0.00 0.00 99 1008.9
20210621125916 68 243 5.0 9.0 0.00 0.00 0.00 99 1009.0
20210621124916 68 202 2.0 9.0 0.00 0.00 0.00 99 1009.3
20210621123916 68 220 0.0 9.0 0.00 0.00 0.00 99 1009.3
20210621122916 68 221 3.0 12.0 0.00 0.00 0.00 99 1009.2
20210621121916 68 224 1.0 9.0 0.00 0.00 0.00 99 1009.1
20210621120916 68 195 0.0 10.0 0.00 0.00 0.00 99 1009.1
20210621115916 68 229 1.0 9.0 0.00 0.00 0.00 99 1009.2
20210621114917 68 215 0.0 9.0 0.00 0.00 0.00 99 1009.3
20210621113846 67 217 4.0 9.0 0.00 0.00 0.00 99 1009.3
20210621112916 68 193 2.0 5.0 0.00 0.00 0.00 99 1009.1
20210621111916 67 202 3.0 10.0 0.00 0.00 0.00 99 1009.0
20210621110916 68 221 0.0 12.0 0.00 0.00 0.00 99 1008.9
20210621105916 68 218 0.0 10.0 0.00 0.00 0.00 99 1008.9
20210621104916 68 220 4.0 12.0 0.00 0.00 0.00 99 1008.8
20210621103916 68 194 0.0 9.0 0.00 0.00 0.00 98 1008.9
20210621102916 68 204 0.0 11.0 0.00 0.00 0.00 98 1008.9
20210621101916 68 195 5.0 13.0 0.00 0.00 0.00 98 1008.7
20210621100916 68 203 3.0 9.0 0.00 0.00 0.00 98 1008.6
20210621095916 68 208 2.0 12.0 0.00 0.00 0.00 99 1008.6
20210621094916 68 211 0.0 7.0 0.00 0.00 0.00 98 1008.6
20210621093916 68 188 2.0 7.0 0.00 0.00 0.00 98 1008.6
20210621092916 68 200 1.0 7.0 0.00 0.00 0.00 98 1008.6
20210621091916 68 217 2.0 10.0 0.00 0.00 0.00 98 1008.7
20210621090916 68 193 2.0 11.0 0.00 0.00 0.00 98 1008.9
20210621085916 68 216 0.0 7.0 0.00 0.00 0.00 98 1009.0
20210621084916 68 212 4.0 7.0 0.00 0.00 0.00 98 1009.0
20210621083846 68 202 5.0 15.0 0.00 0.00 0.00 98 1009.0
20210621082916 68 212 4.0 13.0 0.00 0.00 0.00 98 1009.1
20210621081916 68 198 3.0 6.0 0.00 0.00 0.00 98 1008.9
20210621080916 68 239 2.0 7.0 0.00 0.00 0.00 98 1008.9
20210621075916 67 194 1.0 6.0 0.00 0.00 0.00 98 1008.9
20210621074915 67 191 0.0 11.0 0.00 0.00 0.00 98 1008.9
20210621073916 68 204 0.0 6.0 0.00 0.00 0.00 98 1008.7
20210621072916 68 202 0.0 5.0 0.00 0.00 0.00 98 1008.6
20210621071846 68 194 0.0 4.0 0.00 0.00 0.00 97 1008.7
20210621070915 68 162 0.0 5.0 0.00 0.00 0.00 97 1008.6
20210621065916 68 178 0.0 4.0 0.00 0.00 0.00 97 1008.5
20210621064915 68 172 2.0 3.0 0.00 0.00 0.00 97 1008.4
20210621063916 68 179 0.0 2.0 0.00 0.00 0.00 97 1008.6
20210621062915 68 191 2.0 3.0 0.00 0.00 0.00 97 1008.6
20210621061845 67 195 0.0 1.0 0.00 0.00 0.00 97 1008.6
20210621060916 68 204 0.0 3.0 0.00 0.00 0.00 97 1008.9
20210621055916 68 169 1.0 3.0 0.00 0.00 0.00 97 1008.7
20210621054916 68 189 0.0 9.0 0.00 0.00 0.00 97 1008.9
20210621053916 68 191 0.0 4.0 0.00 0.00 0.00 97 1009.1
20210621052916 67 200 0.0 4.0 0.00 0.00 0.00 97 1009.3
20210621051916 67 177 0.0 4.0 0.00 0.00 0.00 97 1009.4